,,,PA_Meas_PMT16A,,PR_Meas_QMR101_102,,RH_Meas_QMH101,,SR_Meas_QMS101,,TA_Meas_QMH101,,GenWind,,GenWind,
date,time,status,PA,status,PR,status,RH,status,SR,status,TA,status,DirAvg,status,SpdAvg,
2012-06-26, 07:20:04,VALID,1005.11,VALID,0,VALID,80.1261,VALID,213.227,VALID,27.8305,VALID,359,VALID,0.496875,
2012-06-26, 07:21:04,VALID,1005.14,VALID,0,VALID,78.7758,VALID,210.293,VALID,27.8911,VALID,359,VALID,0.728125,
2012-06-26, 07:22:04,VALID,1005.14,VALID,0,VALID,78.4249,VALID,213.39,VALID,27.8694,VALID,358,VALID,0.686328,
2012-06-26, 07:23:04,VALID,1005.15,VALID,0,VALID,77.9595,VALID,216.08,VALID,27.8521,VALID,358,VALID,0.949609,
2012-06-26, 07:24:04,VALID,1005.19,VALID,0,VALID,78.669,VALID,224.231,VALID,27.8131,VALID,356,VALID,0.674609,
2012-06-26, 07:25:04,VALID,1005.15,VALID,0,VALID,79.6455,VALID,238.332,VALID,27.7936,VALID,356,VALID,0.630859,
2012-06-26, 07:26:04,VALID,1005.16,VALID,0,VALID,78.814,VALID,252.678,VALID,27.8716,VALID,355,VALID,0.571484,
2012-06-26, 07:27:04,VALID,1005.2,VALID,0,VALID,78.9208,VALID,270.936,VALID,27.9906,VALID,354,VALID,0.577734,
2012-06-26, 07:28:04,VALID,1005.22,VALID,0,VALID,79.0581,VALID,183.884,VALID,28.047,VALID,353,VALID,0.625781,
2012-06-26, 07:29:04,VALID,1005.25,VALID,0,VALID,77.6849,VALID,256.427,VALID,28.1271,VALID,357,VALID,0.566016,
2012-06-26, 07:30:04,VALID,1005.27,VALID,0,VALID,78.1274,VALID,178.749,VALID,28.1054,VALID,12,VALID,0.563672,
2012-06-26, 07:31:04,VALID,1005.27,VALID,0,VALID,77.3721,VALID,268.409,VALID,28.0859,VALID,22,VALID,0.771094,
2012-06-26, 07:32:04,VALID,1005.32,VALID,0,VALID,76.0218,VALID,207.359,VALID,28.0859,VALID,355,VALID,0.78125,
2012-06-26, 07:33:04,VALID,1005.33,VALID,0,VALID,75.4115,VALID,232.382,VALID,28.1076,VALID,355,VALID,0.739844,
2012-06-26, 07:34:04,VALID,1005.33,VALID,0,VALID,76.4566,VALID,111.993,VALID,28.1076,VALID,6,VALID,0.996875,
2012-06-26, 07:35:04,VALID,1005.34,VALID,0,VALID,76.4795,VALID,283.08,VALID,28.1054,VALID,5,VALID,0.463672,
2012-06-26, 07:36:04,VALID,1005.31,VALID,0,VALID,77.1432,VALID,281.939,VALID,28.1834,VALID,6,VALID,0.424219,
2012-06-26, 07:37:04,VALID,1005.33,VALID,0,VALID,76.0523,VALID,291.068,VALID,28.2809,VALID,5,VALID,0.560156,
2012-06-26, 07:38:04,VALID,1005.29,VALID,0,VALID,75.2513,VALID,287.074,VALID,28.3783,VALID,3,VALID,0.564062,
2012-06-26, 07:39:04,VALID,1005.29,VALID,0,VALID,75.0224,VALID,289.357,VALID,28.4953,VALID,3,VALID,0.329688,
2012-06-26, 07:40:04,VALID,1005.28,VALID,0,VALID,73.4127,VALID,289.357,VALID,28.5927,VALID,1,VALID,0.541797,
2012-06-26, 07:41:04,VALID,1005.27,VALID,0,VALID,74.0993,VALID,294.899,VALID,28.6512,VALID,1,VALID,0.378125,
2012-06-26, 07:42:04,VALID,1005.29,VALID,0,VALID,71.7878,VALID,300.768,VALID,28.7487,VALID,1,VALID,0.523047,
2012-06-26, 07:43:04,VALID,1005.29,VALID,0,VALID,72.2913,VALID,306.066,VALID,28.9046,VALID,1,VALID,0.482812,
2012-06-26, 07:45:04,VALID,1005.27,VALID,0,VALID,71.3758,VALID,99.5224,VALID,28.9653,VALID,360,VALID,0.324609,
2012-06-26, 07:46:04,VALID,1005.29,VALID,0,VALID,72.1082,VALID,270.528,VALID,28.8851,VALID,360,VALID,0.584766,
2012-06-26, 07:47:04,VALID,1005.28,VALID,0,VALID,71.2995,VALID,329.133,VALID,28.8288,VALID,360,VALID,0.513672,
2012-06-26, 07:48:04,VALID,1005.28,VALID,0,VALID,72.5354,VALID,279.983,VALID,28.7487,VALID,360,VALID,0.622656,
2012-06-26, 07:49:04,VALID,1005.29,VALID,0,VALID,72.6803,VALID,223.905,VALID,28.7704,VALID,360,VALID,0.373828,
2012-06-26, 07:50:04,VALID,1005.31,VALID,0,VALID,72.0777,VALID,330.193,VALID,28.8093,VALID,359,VALID,0.566797,
2012-06-26, 07:51:04,VALID,1005.34,VALID,0,VALID,72.009,VALID,326.688,VALID,28.9068,VALID,359,VALID,0.215234,
2012-06-26, 07:52:04,VALID,1005.34,VALID,0,VALID,72.4591,VALID,327.258,VALID,29.0823,VALID,359,VALID,0.450781,
2012-06-26, 07:53:04,VALID,1005.35,VALID,0,VALID,71.7725,VALID,324.976,VALID,29.2968,VALID,359,VALID,0.475,
2012-06-26, 07:54:04,VALID,1005.36,VALID,0,VALID,69.6898,VALID,337.202,VALID,29.4333,VALID,359,VALID,0.541406,
2012-06-26, 07:55:04,VALID,1005.36,VALID,0,VALID,70.4451,VALID,345.109,VALID,29.4918,VALID,355,VALID,0.741016,
2012-06-26, 07:56:04,VALID,1005.37,VALID,0,VALID,70.6282,VALID,351.14,VALID,29.5113,VALID,354,VALID,0.534766,
2012-06-26, 07:57:04,VALID,1005.39,VALID,0,VALID,69.8805,VALID,340.137,VALID,29.5285,VALID,354,VALID,0.496875,
2012-06-26, 07:58:04,VALID,1005.4,VALID,0,VALID,71.6657,VALID,357.335,VALID,29.6478,VALID,354,VALID,0.355469,
2012-06-26, 07:59:04,VALID,1005.41,VALID,0,VALID,70.5519,VALID,367.931,VALID,29.8038,VALID,354,VALID,0.377734,
2012-06-26, 08:00:04,VALID,1005.41,VALID,0,VALID,70.0179,VALID,372.985,VALID,30.0183,VALID,354,VALID,0.00820312,
2012-06-26, 08:01:04,VALID,1005.43,VALID,0,VALID,68.1259,VALID,371.925,VALID,30.1743,VALID,304,VALID,0.559375,
2012-06-26, 08:02:04,VALID,1005.45,VALID,0,VALID,68.2785,VALID,374.778,VALID,30.1548,VALID,298,VALID,0.546484,
2012-06-26, 08:03:04,VALID,1005.46,VALID,0,VALID,68.7362,VALID,376.816,VALID,30.055,VALID,298,VALID,0.197656,
2012-06-26, 08:04:04,VALID,1005.48,VALID,0,VALID,69.7814,VALID,383.255,VALID,29.9598,VALID,298,VALID,0.319141,
2012-06-26, 08:05:04,VALID,1005.51,VALID,0,VALID,69.9339,VALID,386.108,VALID,29.782,VALID,223,VALID,0.701953,
2012-06-26, 08:06:04,VALID,1005.48,VALID,0,VALID,72.1997,VALID,391.569,VALID,29.6088,VALID,78,VALID,0.685938,
2012-06-26, 08:07:04,VALID,1005.48,VALID,0,VALID,70.2391,VALID,131.311,VALID,29.6868,VALID,70,VALID,0,
2012-06-26, 08:08:04,VALID,1005.45,VALID,0,VALID,70.1323,VALID,406.077,VALID,29.8038,VALID,70,VALID,0.225391,
2012-06-26, 08:09:04,VALID,1005.44,VALID,0,VALID,71.7725,VALID,410.723,VALID,29.6283,VALID,129,VALID,1.0418,
2012-06-26, 08:10:04,VALID,1005.43,VALID,0,VALID,70.8723,VALID,407.626,VALID,29.4723,VALID,131,VALID,0.495703,
2012-06-26, 08:11:04,VALID,1005.41,VALID,0,VALID,72.0471,VALID,416.266,VALID,29.4138,VALID,113,VALID,0.680469,
2012-06-26, 08:12:04,VALID,1005.4,VALID,0,VALID,73.8781,VALID,417.978,VALID,29.1993,VALID,122,VALID,1.52539,
2012-06-26, 08:13:04,VALID,1005.42,VALID,0,VALID,71.6047,VALID,421.809,VALID,29.065,VALID,146,VALID,1.62773,
2012-06-26, 08:14:04,VALID,1005.42,VALID,0,VALID,73.756,VALID,409.419,VALID,28.9458,VALID,116,VALID,0.899609,
2012-06-26, 08:15:04,VALID,1005.41,VALID,0,VALID,73.4432,VALID,411.539,VALID,28.9631,VALID,142,VALID,0.828516,
2012-06-26, 08:16:04,VALID,1005.4,VALID,0,VALID,73.5729,VALID,401.431,VALID,29.0411,VALID,143,VALID,1.14297,
2012-06-26, 08:17:04,VALID,1005.4,VALID,0,VALID,72.1845,VALID,404.121,VALID,29.0433,VALID,126,VALID,1.56602,
2012-06-26, 08:18:04,VALID,1005.39,VALID,0,VALID,72.8024,VALID,431.834,VALID,28.9458,VALID,133,VALID,0.914453,
2012-06-26, 08:19:04,VALID,1005.41,VALID,0,VALID,75.648,VALID,443.735,VALID,28.9848,VALID,141,VALID,0.878125,
2012-06-26, 08:20:04,VALID,1005.44,VALID,0,VALID,73.4051,VALID,327.584,VALID,29.0628,VALID,176,VALID,1.15742,
2012-06-26, 08:23:04,VALID,1005.42,VALID,0,VALID,76.1591,VALID,324.813,VALID,28.8483,VALID,152,VALID,0.615625,
2012-06-26, 08:25:04,VALID,1005.42,VALID,0,VALID,74.702,VALID,495.819,VALID,28.6729,VALID,120,VALID,0.890625,
2012-06-26, 08:26:04,VALID,1005.45,VALID,0,VALID,75.4039,VALID,498.835,VALID,28.7335,VALID,106,VALID,1.0793,
2012-06-26, 08:27:04,VALID,1005.46,VALID,0,VALID,74.1832,VALID,506.333,VALID,28.831,VALID,106,VALID,0.255469,
2012-06-26, 08:30:04,VALID,1005.47,VALID,0,VALID,74.0383,VALID,534.617,VALID,29.0455,VALID,90,VALID,1.19258,
2012-06-26, 08:31:04,VALID,1005.47,VALID,0,VALID,73.7255,VALID,542.523,VALID,29.0043,VALID,137,VALID,1.15078,
2012-06-26, 08:32:04,VALID,1005.49,VALID,0,VALID,73.3975,VALID,557.766,VALID,28.9653,VALID,163,VALID,1.47344,
2012-06-26, 08:33:04,VALID,1005.5,VALID,0,VALID,75.114,VALID,108.162,VALID,28.8873,VALID,135,VALID,1.12695,
2012-06-26, 08:34:04,VALID,1005.52,VALID,0,VALID,73.3669,VALID,108.081,VALID,28.7509,VALID,117,VALID,1.17031,
2012-06-26, 08:35:04,VALID,1005.5,VALID,0,VALID,75.4801,VALID,552.875,VALID,28.6556,VALID,120,VALID,0.990234,
2012-06-26, 08:36:04,VALID,1005.52,VALID,0,VALID,74.3434,VALID,565.427,VALID,28.6534,VALID,122,VALID,1.09844,
2012-06-26, 08:37:04,VALID,1005.53,VALID,0,VALID,74.9309,VALID,563.145,VALID,28.6729,VALID,126,VALID,0.799219,
2012-06-26, 08:38:04,VALID,1005.51,VALID,0,VALID,76.1439,VALID,318.374,VALID,28.8483,VALID,121,VALID,0.351953,
2012-06-26, 08:39:04,VALID,1005.51,VALID,0,VALID,72.9245,VALID,529.645,VALID,29.0043,VALID,117,VALID,0.983984,
2012-06-26, 08:40:04,VALID,1005.5,VALID,0,VALID,73.1457,VALID,116.721,VALID,29.0628,VALID,118,VALID,0.609375,
2012-06-26, 08:41:04,VALID,1005.51,VALID,0,VALID,71.5284,VALID,119.981,VALID,29.0433,VALID,158,VALID,0.854688,
2012-06-26, 08:42:04,VALID,1005.47,VALID,0,VALID,73.4814,VALID,421.483,VALID,28.9826,VALID,159,VALID,0.670703,
2012-06-26, 08:43:04,VALID,1005.48,VALID,0,VALID,71.269,VALID,534.943,VALID,29.0433,VALID,206,VALID,0.824219,
2012-06-26, 08:44:04,VALID,1005.44,VALID,0,VALID,71.2003,VALID,258.709,VALID,29.143,VALID,195,VALID,1.51016,
2012-06-26, 08:45:04,VALID,1005.46,VALID,0,VALID,70.1018,VALID,504.622,VALID,29.1213,VALID,149,VALID,1.53906,
2012-06-26, 08:49:04,VALID,1005.48,VALID,0,VALID,71.6504,VALID,568.769,VALID,28.9458,VALID,181,VALID,1.27578,
2012-06-26, 08:50:04,VALID,1005.46,VALID,0,VALID,71.0706,VALID,565.509,VALID,29.0043,VALID,180,VALID,0.372656,
2012-06-26, 08:51:04,VALID,1005.46,VALID,0,VALID,71.4292,VALID,560.781,VALID,29.1776,VALID,180,VALID,0.0554687,
2012-06-26, 08:52:04,VALID,1005.45,VALID,0,VALID,71.3224,VALID,531.112,VALID,29.2578,VALID,188,VALID,0.957422,
2012-06-26, 08:53:04,VALID,1005.47,VALID,0,VALID,69.8653,VALID,453.19,VALID,29.3163,VALID,189,VALID,1.38242,
2012-06-26, 08:54:04,VALID,1005.44,VALID,0,VALID,70.2696,VALID,577.491,VALID,29.2773,VALID,178,VALID,1.56211,
2012-06-26, 08:55:04,VALID,1005.43,VALID,0,VALID,69.8195,VALID,339.648,VALID,29.1993,VALID,196,VALID,1.11914,
2012-06-26, 08:56:04,VALID,1005.43,VALID,0,VALID,70.262,VALID,128.377,VALID,29.1386,VALID,228,VALID,0.896484,
2012-06-26, 08:57:04,VALID,1005.44,VALID,0,VALID,72.688,VALID,629.982,VALID,29.1018,VALID,230,VALID,0.410937,
2012-06-26, 08:58:04,VALID,1005.42,VALID,0,VALID,71.5513,VALID,600.15,VALID,29.1993,VALID,205,VALID,0.598437,
2012-06-26, 08:59:04,VALID,1005.42,VALID,0,VALID,72.1692,VALID,606.671,VALID,29.2795,VALID,180,VALID,0.578906,
2012-06-26, 09:00:04,VALID,1005.43,VALID,0,VALID,71.5055,VALID,134.49,VALID,29.3748,VALID,219,VALID,0.817187,
2012-06-26, 09:01:04,VALID,1005.43,VALID,0,VALID,70.6434,VALID,637.726,VALID,29.3358,VALID,195,VALID,1.1543,
2012-06-26, 09:02:04,VALID,1005.4,VALID,0,VALID,70.384,VALID,631.45,VALID,29.2405,VALID,206,VALID,0.782812,
2012-06-26, 09:03:04,VALID,1005.41,VALID,0,VALID,68.8812,VALID,628.678,VALID,29.2795,VALID,236,VALID,1.19961,
2012-06-26, 09:04:04,VALID,1005.36,VALID,0,VALID,69.728,VALID,633.895,VALID,29.338,VALID,240,VALID,1.62891,
2012-06-26, 09:05:04,VALID,1005.39,VALID,0,VALID,72.4973,VALID,615.392,VALID,29.338,VALID,190,VALID,0.510938,
2012-06-26, 09:06:04,VALID,1005.37,VALID,0,VALID,71.597,VALID,608.219,VALID,29.5698,VALID,255,VALID,0.577344,
2012-06-26, 09:07:04,VALID,1005.36,VALID,0,VALID,69.461,VALID,615.555,VALID,29.9403,VALID,255,VALID,0.867188,
2012-06-26, 09:08:04,VALID,1005.34,VALID,0,VALID,67.6453,VALID,633.976,VALID,30.0963,VALID,162,VALID,1.46992,
2012-06-26, 09:09:04,VALID,1005.33,VALID,0,VALID,67.7902,VALID,645.877,VALID,29.9403,VALID,169,VALID,1.7207,
2012-06-26, 09:10:04,VALID,1005.35,VALID,0,VALID,69.9111,VALID,663.972,VALID,29.7063,VALID,152,VALID,1.78125,
2012-06-26, 09:11:04,VALID,1005.35,VALID,0,VALID,69.85,VALID,666.987,VALID,29.689,VALID,157,VALID,0.592188,
2012-06-26, 09:12:04,VALID,1005.37,VALID,0,VALID,68.3014,VALID,673.59,VALID,29.572,VALID,133,VALID,0.883594,
2012-06-26, 09:13:04,VALID,1005.38,VALID,0,VALID,69.8882,VALID,661.363,VALID,29.6305,VALID,184,VALID,0.663672,
2012-06-26, 09:14:04,VALID,1005.41,VALID,0,VALID,71.7801,VALID,659.081,VALID,29.8233,VALID,140,VALID,0.861328,
2012-06-26, 09:15:04,VALID,1005.37,VALID,0,VALID,69.8195,VALID,650.034,VALID,29.9598,VALID,195,VALID,1.29141,
2012-06-26, 09:16:04,VALID,1005.41,VALID,0,VALID,68.8888,VALID,648.811,VALID,30.0206,VALID,176,VALID,0.666016,
2012-06-26, 09:17:04,VALID,1005.38,VALID,0,VALID,68.782,VALID,636.748,VALID,30.0986,VALID,159,VALID,1.46523,
2012-06-26, 09:18:04,VALID,1005.34,VALID,0,VALID,67.7597,VALID,636.259,VALID,30.0986,VALID,177,VALID,0.656641,
2012-06-26, 09:19:04,VALID,1005.36,VALID,0,VALID,67.0197,VALID,641.72,VALID,29.8255,VALID,135,VALID,0.885156,
2012-06-26, 09:20:04,VALID,1005.35,VALID,0,VALID,69.4076,VALID,651.827,VALID,29.806,VALID,180,VALID,1.80234,
2012-06-26, 09:21:04,VALID,1005.35,VALID,0,VALID,71.0401,VALID,669.922,VALID,29.7303,VALID,171,VALID,1.93945,
2012-06-26, 09:22:04,VALID,1005.36,VALID,0,VALID,67.8207,VALID,699.836,VALID,29.5915,VALID,186,VALID,1.40625,
2012-06-26, 09:23:04,VALID,1005.35,VALID,0,VALID,69.2702,VALID,687.202,VALID,29.5698,VALID,129,VALID,1.26719,
2012-06-26, 09:24:04,VALID,1005.39,VALID,0,VALID,69.7356,VALID,456.205,VALID,29.533,VALID,93,VALID,0.475391,
2012-06-26, 09:25:04,VALID,1005.38,VALID,0,VALID,72.2226,VALID,722.577,VALID,29.6305,VALID,160,VALID,1.78125,
2012-06-26, 09:26:04,VALID,1005.4,VALID,0,VALID,68.3166,VALID,501.361,VALID,29.65,VALID,201,VALID,1.95781,
2012-06-26, 09:27:04,VALID,1005.37,VALID,0,VALID,69.4533,VALID,308.267,VALID,29.4962,VALID,172,VALID,1.73867,
2012-06-26, 09:28:04,VALID,1005.4,VALID,0,VALID,69.8958,VALID,716.3,VALID,29.3575,VALID,176,VALID,2.17148,
2012-06-26, 09:29:04,VALID,1005.4,VALID,0,VALID,72.3752,VALID,745.399,VALID,29.3965,VALID,171,VALID,1.39492,
2012-06-26, 09:30:04,VALID,1005.39,VALID,0,VALID,72.5507,VALID,644.573,VALID,29.4767,VALID,267,VALID,0.895312,
2012-06-26, 09:31:04,VALID,1005.38,VALID,0,VALID,71.948,VALID,728.771,VALID,29.65,VALID,273,VALID,0.291797,
2012-06-26, 09:32:04,VALID,1005.37,VALID,0,VALID,69.049,VALID,211.923,VALID,29.9231,VALID,186,VALID,1.40508,
2012-06-26, 09:33:04,VALID,1005.37,VALID,0,VALID,69.3389,VALID,128.703,VALID,29.8668,VALID,215,VALID,1.90898,
2012-06-26, 09:34:04,VALID,1005.36,VALID,0,VALID,69.2931,VALID,620.364,VALID,29.5893,VALID,198,VALID,1.60586,
2012-06-26, 09:35:04,VALID,1005.29,VALID,0,VALID,70.8418,VALID,716.219,VALID,29.4333,VALID,167,VALID,1.39805,
2012-06-26, 09:36:04,VALID,1005.33,VALID,0,VALID,71.9022,VALID,715.485,VALID,29.455,VALID,154,VALID,2.33672,
2012-06-26, 09:37:04,VALID,1005.34,VALID,0,VALID,70.8036,VALID,725.266,VALID,29.3553,VALID,171,VALID,1.27539,
2012-06-26, 09:38:04,VALID,1005.31,VALID,0,VALID,70.1399,VALID,699.999,VALID,29.4355,VALID,147,VALID,1.68789,
2012-06-26, 09:39:04,VALID,1005.34,VALID,0,VALID,70.1628,VALID,184.699,VALID,29.3748,VALID,170,VALID,2.08516,
2012-06-26, 09:40:04,VALID,1005.29,VALID,0,VALID,71.8488,VALID,754.202,VALID,29.2773,VALID,164,VALID,0.696094,
2012-06-26, 09:41:04,VALID,1005.34,VALID,0,VALID,71.742,VALID,772.378,VALID,29.3748,VALID,187,VALID,0.510547,
2012-06-26, 09:42:04,VALID,1005.33,VALID,0,VALID,69.5601,VALID,746.459,VALID,29.5503,VALID,188,VALID,1.34492,
2012-06-26, 09:43:04,VALID,1005.31,VALID,0,VALID,68.9193,VALID,740.59,VALID,29.572,VALID,169,VALID,1.8668,
2012-06-26, 09:44:04,VALID,1005.31,VALID,0,VALID,70.9333,VALID,744.91,VALID,29.611,VALID,107,VALID,1.69805,
2012-06-26, 09:45:04,VALID,1005.3,VALID,0,VALID,69.1939,VALID,751.023,VALID,29.4918,VALID,155,VALID,0.955469,
2012-06-26, 09:46:04,VALID,1005.3,VALID,0,VALID,69.4381,VALID,754.12,VALID,29.5698,VALID,165,VALID,0.297266,
2012-06-26, 09:47:04,VALID,1005.28,VALID,0,VALID,72.7109,VALID,754.12,VALID,29.7648,VALID,186,VALID,1.69531,
2012-06-26, 09:48:04,VALID,1005.31,VALID,0,VALID,68.8506,VALID,772.215,VALID,29.767,VALID,193,VALID,1.61641,
2012-06-26, 09:49:04,VALID,1005.31,VALID,0,VALID,69.9492,VALID,338.996,VALID,29.7648,VALID,190,VALID,1.84375,
2012-06-26, 09:50:04,VALID,1005.3,VALID,0,VALID,67.0121,VALID,518.56,VALID,29.7843,VALID,195,VALID,0.694141,
2012-06-26, 09:51:04,VALID,1005.3,VALID,0,VALID,68.3014,VALID,846.633,VALID,29.8015,VALID,163,VALID,0.803125,
2012-06-26, 09:52:04,VALID,1005.28,VALID,0,VALID,70.6816,VALID,509.594,VALID,29.7475,VALID,145,VALID,0.248047,
2012-06-26, 09:53:04,VALID,1005.28,VALID,0,VALID,70.5519,VALID,788.843,VALID,29.9253,VALID,129,VALID,0.729297,
2012-06-26, 09:54:04,VALID,1005.26,VALID,0,VALID,69.3847,VALID,771.808,VALID,30.0791,VALID,182,VALID,1.46914,
2012-06-26, 09:55:04,VALID,1005.26,VALID,0,VALID,67.6911,VALID,770.422,VALID,30.0986,VALID,148,VALID,1.9457,
2012-06-26, 09:56:04,VALID,1005.31,VALID,0,VALID,66.2873,VALID,767.08,VALID,30.0033,VALID,167,VALID,2.81172,
2012-06-26, 09:57:04,VALID,1005.3,VALID,0,VALID,67.4774,VALID,772.297,VALID,29.7108,VALID,158,VALID,2.16172,
2012-06-26, 09:58:04,VALID,1005.31,VALID,0,VALID,68.5226,VALID,806.205,VALID,29.611,VALID,154,VALID,1.85508,
2012-06-26, 09:59:04,VALID,1005.3,VALID,0,VALID,70.0179,VALID,860.327,VALID,29.5135,VALID,155,VALID,2.44922,
2012-06-26, 10:00:04,VALID,1005.35,VALID,0,VALID,69.1253,VALID,839.705,VALID,29.5135,VALID,154,VALID,1.6043,
2012-06-26, 10:01:04,VALID,1005.35,VALID,0,VALID,69.1787,VALID,852.502,VALID,29.5352,VALID,171,VALID,1.39023,
2012-06-26, 10:02:04,VALID,1005.35,VALID,0,VALID,68.248,VALID,848.589,VALID,29.611,VALID,184,VALID,1.22617,
2012-06-26, 10:03:04,VALID,1005.32,VALID,0,VALID,68.3624,VALID,848.915,VALID,29.7865,VALID,197,VALID,1.53398,
2012-06-26, 10:04:04,VALID,1005.31,VALID,0,VALID,68.1946,VALID,847.122,VALID,29.9598,VALID,206,VALID,1.21367,
2012-06-26, 10:05:04,VALID,1005.31,VALID,0,VALID,66.9739,VALID,844.351,VALID,30.1158,VALID,238,VALID,1.48984,
2012-06-26, 10:06:04,VALID,1005.34,VALID,0,VALID,66.9968,VALID,230.263,VALID,30.0768,VALID,180,VALID,2.31289,
2012-06-26, 10:07:04,VALID,1005.34,VALID,0,VALID,70.59,VALID,798.217,VALID,29.8233,VALID,172,VALID,1.75352,
2012-06-26, 10:08:04,VALID,1005.33,VALID,0,VALID,69.8653,VALID,840.927,VALID,29.9013,VALID,245,VALID,1.76953,
2012-06-26, 10:09:04,VALID,1005.31,VALID,0,VALID,69.5983,VALID,851.85,VALID,29.9816,VALID,246,VALID,1.03008,
2012-06-26, 10:10:04,VALID,1005.3,VALID,0,VALID,70.2162,VALID,820.55,VALID,30.1158,VALID,337,VALID,0.295703,
2012-06-26, 10:11:04,VALID,1005.3,VALID,0,VALID,68.5989,VALID,829.19,VALID,30.4279,VALID,246,VALID,1.02734,
2012-06-26, 10:12:04,VALID,1005.3,VALID,0,VALID,68.309,VALID,186.574,VALID,30.6253,VALID,183,VALID,1.52461,
2012-06-26, 10:14:04,VALID,1005.29,VALID,0,VALID,67.2486,VALID,96.8326,VALID,30.0768,VALID,239,VALID,1.0543,
2012-06-26, 10:15:04,VALID,1005.29,VALID,0,VALID,68.0038,VALID,108.814,VALID,29.7648,VALID,231,VALID,1.22305,
2012-06-26, 10:16:04,VALID,1005.26,VALID,0,VALID,69.8424,VALID,119.166,VALID,29.4918,VALID,232,VALID,0.171875,
2012-06-26, 10:17:04,VALID,1005.22,VALID,0,VALID,69.5754,VALID,156.09,VALID,29.4115,VALID,285,VALID,0.680078,
2012-06-26, 10:18:04,VALID,1005.19,VALID,0,VALID,69.2779,VALID,859.267,VALID,29.4528,VALID,276,VALID,0.558594,
2012-06-26, 10:19:04,VALID,1005.17,VALID,0,VALID,68.782,VALID,272.973,VALID,29.5893,VALID,257,VALID,0.529688,
2012-06-26, 10:20:04,VALID,1005.16,VALID,0,VALID,69.6288,VALID,193.258,VALID,29.7258,VALID,266,VALID,0.480469,
2012-06-26, 10:21:04,VALID,1005.1,VALID,0,VALID,69.8882,VALID,826.174,VALID,29.8623,VALID,273,VALID,0.432422,
2012-06-26, 10:22:04,VALID,1005.14,VALID,0,VALID,66.2339,VALID,467.943,VALID,29.9208,VALID,218,VALID,2.22461,
2012-06-26, 10:23:04,VALID,1005.08,VALID,0,VALID,67.0579,VALID,140.114,VALID,29.8038,VALID,252,VALID,1.47656,
2012-06-26, 10:24:04,VALID,1005.09,VALID,0,VALID,68.8506,VALID,143.211,VALID,29.626,VALID,275,VALID,0.920703,
2012-06-26, 10:25:04,VALID,1005.08,VALID,0,VALID,68.9575,VALID,185.107,VALID,29.626,VALID,180,VALID,0.476953,
2012-06-26, 10:26:04,VALID,1005.06,VALID,0,VALID,67.7673,VALID,754.609,VALID,29.7258,VALID,255,VALID,0.85,
2012-06-26, 10:27:04,VALID,1005.09,VALID,0,VALID,67.9581,VALID,408.523,VALID,29.9208,VALID,226,VALID,0.633594,
2012-06-26, 10:28:04,VALID,1005.09,VALID,0,VALID,66.1958,VALID,172.065,VALID,30.0378,VALID,182,VALID,1.2707,
2012-06-26, 10:29:04,VALID,1005.03,VALID,0,VALID,66.2111,VALID,201.246,VALID,29.7453,VALID,134,VALID,1.04297,
2012-06-26, 10:30:04,VALID,1005.04,VALID,0,VALID,68.0038,VALID,883.801,VALID,29.6088,VALID,164,VALID,1.54141,
2012-06-26, 10:31:04,VALID,1005.05,VALID,0,VALID,70.0713,VALID,894.723,VALID,29.6478,VALID,210,VALID,0.809375,
2012-06-26, 10:32:04,VALID,1004.99,VALID,0,VALID,69.4533,VALID,906.053,VALID,29.8405,VALID,197,VALID,0.653516,
2012-06-26, 10:33:04,VALID,1004.99,VALID,0,VALID,66.9358,VALID,920.888,VALID,29.977,VALID,176,VALID,1.16758,
2012-06-26, 10:34:04,VALID,1004.95,VALID,0,VALID,67.981,VALID,922.518,VALID,29.977,VALID,176,VALID,1.10703,
2012-06-26, 10:35:04,VALID,1004.95,VALID,0,VALID,68.3548,VALID,819.165,VALID,30.094,VALID,146,VALID,0.532031,
2012-06-26, 10:36:04,VALID,1004.94,VALID,0,VALID,67.4622,VALID,677.176,VALID,30.4061,VALID,249,VALID,1.17578,
2012-06-26, 10:37:04,VALID,1004.91,VALID,0,VALID,64.2962,VALID,687.283,VALID,30.662,VALID,354,VALID,0.616797,
2012-06-26, 10:38:04,VALID,1004.86,VALID,0,VALID,62.6941,VALID,931.158,VALID,30.7962,VALID,227,VALID,1.07383,
2012-06-26, 10:39:04,VALID,1004.91,VALID,0,VALID,64.136,VALID,887.551,VALID,30.818,VALID,232,VALID,1.12148,
2012-06-26, 10:40:04,VALID,1004.9,VALID,0,VALID,63.7927,VALID,836.363,VALID,30.896,VALID,214,VALID,0.834766,
2012-06-26, 10:41:04,VALID,1004.9,VALID,0,VALID,63.0603,VALID,839.053,VALID,31.0107,VALID,134,VALID,1.08164,
2012-06-26, 10:42:04,VALID,1004.89,VALID,0,VALID,64.3496,VALID,834.407,VALID,30.6596,VALID,159,VALID,1.41016,
2012-06-26, 10:43:04,VALID,1004.89,VALID,0,VALID,64.3801,VALID,846.552,VALID,30.6986,VALID,175,VALID,1.70273,
2012-06-26, 10:44:04,VALID,1004.88,VALID,0,VALID,62.8772,VALID,851.605,VALID,30.5059,VALID,165,VALID,2.11367,
2012-06-26, 10:45:04,VALID,1004.88,VALID,0,VALID,64.2886,VALID,842.395,VALID,30.3109,VALID,174,VALID,1.17148,
2012-06-26, 10:46:04,VALID,1004.88,VALID,0,VALID,64.5022,VALID,841.335,VALID,30.4256,VALID,159,VALID,2.75938,
2012-06-26, 10:47:04,VALID,1004.92,VALID,0,VALID,64.731,VALID,847.448,VALID,30.25,VALID,193,VALID,1.55938,
2012-06-26, 10:48:04,VALID,1004.9,VALID,0,VALID,65.4329,VALID,846.226,VALID,30.1743,VALID,160,VALID,1.74023,
2012-06-26, 10:49:04,VALID,1004.85,VALID,0,VALID,63.8003,VALID,843.617,VALID,30.1743,VALID,161,VALID,1.25586,
2012-06-26, 10:50:04,VALID,1004.86,VALID,0,VALID,64.9828,VALID,832.777,VALID,30.3109,VALID,193,VALID,1.19258,
2012-06-26, 10:51:04,VALID,1004.84,VALID,0,VALID,66.1119,VALID,828.946,VALID,30.3694,VALID,228,VALID,1.88945,
2012-06-26, 10:52:04,VALID,1004.79,VALID,0,VALID,62.595,VALID,824.87,VALID,30.4256,VALID,202,VALID,1.51602,
2012-06-26, 10:53:04,VALID,1004.79,VALID,0,VALID,63.7774,VALID,825.93,VALID,30.4669,VALID,241,VALID,1.21445,
2012-06-26, 10:54:04,VALID,1004.8,VALID,0,VALID,62.9917,VALID,823.322,VALID,30.5231,VALID,184,VALID,1.23828,
2012-06-26, 10:55:04,VALID,1004.79,VALID,0,VALID,66.6306,VALID,827.152,VALID,30.5254,VALID,175,VALID,1.07266,
2012-06-26, 10:56:04,VALID,1004.79,VALID,0,VALID,61.3133,VALID,832.369,VALID,30.4451,VALID,132,VALID,1.91484,
2012-06-26, 10:57:04,VALID,1004.78,VALID,0,VALID,66.5391,VALID,832.451,VALID,30.2913,VALID,162,VALID,0.872656,
2012-06-26, 10:58:04,VALID,1004.78,VALID,0,VALID,64.7845,VALID,833.021,VALID,30.3694,VALID,196,VALID,1.37148,
2012-06-26, 10:59:04,VALID,1004.75,VALID,0,VALID,65.5016,VALID,829.272,VALID,30.4692,VALID,207,VALID,1.14063,
2012-06-26, 11:00:04,VALID,1004.71,VALID,0,VALID,65.3414,VALID,827.723,VALID,30.6424,VALID,173,VALID,1.06602,
2012-06-26, 11:01:04,VALID,1004.73,VALID,0,VALID,61.5956,VALID,823.24,VALID,30.6034,VALID,129,VALID,2.35352,
2012-06-26, 11:02:04,VALID,1004.7,VALID,0,VALID,61.9236,VALID,821.284,VALID,30.3912,VALID,147,VALID,1.20039,
2012-06-26, 11:03:04,VALID,1004.63,VALID,0,VALID,64.1207,VALID,824.626,VALID,30.3694,VALID,148,VALID,0.991406,